User: anonymous   Login
Location: Unspecified
(0.0000°N, 0.0000°E)
Time: 00:09:43
(UTC+01:00)
Language:

Iridium 33 - Orbit

View from above orbital plane
View from above orbital plane
View from above satellite
View from above satellite

Ground track
Ground track

The orbit data is extracted from the following two-line orbital elements,

1 24946U 97051C   18055.85855611 +.00000082 +00000-0 +22602-4 0  9991
2 24946 086.3930 181.0002 0009464 131.3199 228.8813 14.33592157070221
Epoch (UTC): 24 February 2018 20:36:19
Eccentricity: 0.0009464
inclination: 86.3930°
perigee height: 773 km
apogee height: 786 km
right ascension of ascending node: 181.0002°
argument of perigee: 131.3199°
revolutions per day: 14.33592157
mean anomaly at epoch: 228.8813°
orbit number at epoch: 7022

The dashed part of the orbit path shows where the satellite is in the earth's shadow,  

DLR